Tracking 19279 objects as of 14-Nov-2018
HD Live streaming from Space Station
objects crossing your sky now

STTW-T1

Track STTW-T1 now!
10-day predictions
STTW-T1 is classified as:


NORAD ID: 14670
Int'l Code: 1984-008A
Perigee: 488.1 km
Apogee: 6,315.7 km
Inclination: 36.1 °
Period: 160.2 minutes
Semi major axis: 9772 km
RCS: 3.9341 m2 (large)
Launch date: January 29, 1984
Source: People's Republic of China (PRC)
Launch site: Xichang Space Center, China (XSC)
aabbcc
Your satellite tracking list
Your tracking list is empty




NASA's NSSDC Master Catalog

Two Line Element Set (TLE):
1 14670U 84008A   18317.34929672 -.00000063 +00000-0 -32287-4 0  9997
2 14670 036.1141 312.1514 2981500 177.1082 185.1928 08.98599864134271
Source of the keplerian elements: AFSPC